| time (UTC) | temp F | wind direction | speed MPH | gust MPH | rain 1hr in | rain 24hr in | rain mn in | humidity % | barometer mb |
| 20260506091043 | 60 | 226 | 6.0 | 14.0 | 0.00 | 0.00 | 0.00 | 82 | 1011.2 |
| 20260506090543 | 60 | 221 | 6.0 | 14.0 | 0.00 | 0.00 | 0.00 | 82 | 1011.2 |
| 20260506090044 | 60 | 240 | 7.0 | 14.0 | 0.00 | 0.00 | 0.00 | 82 | 1011.4 |
| 20260506085540 | 60 | 227 | 7.0 | 12.0 | 0.00 | 0.00 | 0.00 | 82 | 1011.3 |
| 20260506085040 | 61 | 190 | 7.0 | 12.0 | 0.00 | 0.00 | 0.00 | 81 | 1011.4 |
| 20260506084600 | 61 | 198 | 6.0 | 17.0 | 0.00 | 0.00 | 0.00 | 81 | 1011.5 |
| 20260506084039 | 61 | 238 | 6.0 | 17.0 | 0.00 | 0.00 | 0.00 | 81 | 1011.4 |
| 20260506083539 | 61 | 239 | 6.0 | 14.0 | 0.00 | 0.00 | 0.00 | 81 | 1011.5 |
| 20260506083039 | 61 | 214 | 8.0 | 16.0 | 0.00 | 0.00 | 0.00 | 81 | 1011.6 |
| 20260506082538 | 61 | 221 | 8.0 | 16.0 | 0.00 | 0.00 | 0.00 | 81 | 1011.6 |
| 20260506082036 | 61 | 178 | 7.0 | 15.0 | 0.00 | 0.00 | 0.00 | 81 | 1011.6 |
| 20260506081541 | 61 | 236 | 8.0 | 16.0 | 0.00 | 0.00 | 0.00 | 81 | 1011.6 |
| 20260506081035 | 61 | 216 | 7.0 | 16.0 | 0.00 | 0.00 | 0.00 | 81 | 1011.6 |
| 20260506080534 | 61 | 217 | 9.0 | 16.0 | 0.00 | 0.00 | 0.00 | 81 | 1011.5 |
| 20260506073040 | 61 | 209 | 6.0 | 15.0 | 0.00 | 0.00 | 0.00 | 81 | 1011.5 |
| 20260506072530 | 61 | 209 | 8.0 | 15.0 | 0.00 | 0.00 | 0.00 | 81 | 1011.4 |
| 20260506072031 | 61 | 214 | 8.0 | 13.0 | 0.00 | 0.00 | 0.00 | 81 | 1011.5 |
| 20260506071530 | 61 | 220 | 8.0 | 15.0 | 0.00 | 0.00 | 0.00 | 81 | 1011.5 |
| 20260506071028 | 61 | 227 | 8.0 | 14.0 | 0.00 | 0.00 | 0.00 | 81 | 1011.5 |
| 20260506070528 | 61 | 218 | 9.0 | 16.0 | 0.00 | 0.00 | 0.00 | 81 | 1011.6 |
| 20260506062018 | 61 | 205 | 8.0 | 14.0 | 0.00 | 0.00 | 0.00 | 81 | 1011.7 |
| 20260506061517 | 61 | 215 | 7.0 | 14.0 | 0.00 | 0.00 | 0.00 | 81 | 1011.7 |
| 20260506061017 | 61 | 215 | 6.0 | 12.0 | 0.00 | 0.00 | 0.00 | 81 | 1011.7 |
| 20260506060517 | 61 | 213 | 8.0 | 12.0 | 0.00 | 0.00 | 0.00 | 81 | 1011.7 |
| 20260506051003 | 62 | 213 | 9.0 | 16.0 | 0.00 | 0.00 | 0.00 | 79 | 1012.1 |
| 20260506050501 | 62 | 215 | 8.0 | 16.0 | 0.00 | 0.00 | 0.00 | 78 | 1012.2 |
| 20260506045057 | 63 | 207 | 8.0 | 15.0 | 0.00 | 0.00 | 0.00 | 78 | 1012.3 |
| 20260506044703 | 63 | 225 | 7.0 | 15.0 | 0.00 | 0.00 | 0.00 | 78 | 1012.3 |
| 20260506044058 | 63 | 178 | 8.0 | 15.0 | 0.00 | 0.00 | 0.00 | 77 | 1012.2 |
| 20260506043556 | 63 | 227 | 8.0 | 17.0 | 0.00 | 0.00 | 0.00 | 78 | 1012.2 |
| 20260506043101 | 63 | 209 | 9.0 | 16.0 | 0.00 | 0.00 | 0.00 | 78 | 1012.2 |
| 20260506042553 | 63 | 226 | 9.0 | 15.0 | 0.00 | 0.00 | 0.00 | 78 | 1012.1 |
| 20260506042051 | 63 | 214 | 8.0 | 15.0 | 0.00 | 0.00 | 0.00 | 77 | 1012.1 |
| 20260506041601 | 63 | 209 | 8.0 | 17.0 | 0.00 | 0.00 | 0.00 | 77 | 1012.1 |
| 20260506041052 | 63 | 208 | 8.0 | 16.0 | 0.00 | 0.00 | 0.00 | 77 | 1012.1 |
| 20260506040552 | 63 | 224 | 8.0 | 17.0 | 0.00 | 0.00 | 0.00 | 77 | 1012.1 |
| 20260506040150 | 63 | 219 | 10.0 | 18.0 | 0.00 | 0.00 | 0.00 | 77 | 1012.1 |
| 20260506035549 | 63 | 238 | 10.0 | 15.0 | 0.00 | 0.00 | 0.00 | 76 | 1012.1 |
| 20260506035049 | 64 | 236 | 9.0 | 21.0 | 0.00 | 0.00 | 0.00 | 76 | 1012.1 |
| 20260506034622 | 64 | 213 | 10.0 | 21.0 | 0.00 | 0.00 | 0.00 | 76 | 1012.0 |
| 20260506034048 | 63 | 212 | 10.0 | 20.0 | 0.00 | 0.00 | 0.00 | 76 | 1012.1 |
| 20260506033547 | 63 | 216 | 10.0 | 20.0 | 0.00 | 0.00 | 0.00 | 76 | 1012.1 |
| 20260506033049 | 63 | 214 | 9.0 | 19.0 | 0.00 | 0.00 | 0.00 | 76 | 1012.1 |
| 20260506032548 | 64 | 178 | 9.0 | 20.0 | 0.00 | 0.00 | 0.00 | 76 | 1012.1 |
| 20260506032047 | 64 | 228 | 10.0 | 20.0 | 0.00 | 0.00 | 0.00 | 76 | 1012.1 |
| 20260506031547 | 64 | 211 | 8.0 | 17.0 | 0.00 | 0.00 | 0.00 | 76 | 1012.2 |
| 20260506031047 | 64 | 217 | 11.0 | 20.0 | 0.00 | 0.00 | 0.00 | 75 | 1012.1 |
| 20260506030547 | 64 | 204 | 11.0 | 20.0 | 0.00 | 0.00 | 0.00 | 75 | 1012.1 |
| 20260506030046 | 64 | 215 | 10.0 | 20.0 | 0.00 | 0.00 | 0.00 | 75 | 1012.2 |
| 20260506025546 | 64 | 198 | 10.0 | 18.0 | 0.00 | 0.00 | 0.00 | 75 | 1012.2 |
| 20260506025050 | 64 | 227 | 9.0 | 18.0 | 0.00 | 0.00 | 0.00 | 75 | 1012.2 |
| 20260506024546 | 64 | 211 | 10.0 | 16.0 | 0.00 | 0.00 | 0.00 | 75 | 1012.1 |
| 20260506024046 | 64 | 229 | 10.0 | 17.0 | 0.00 | 0.00 | 0.00 | 75 | 1012.2 |
| 20260506023546 | 65 | 225 | 11.0 | 20.0 | 0.00 | 0.00 | 0.00 | 74 | 1012.2 |
| 20260506023104 | 65 | 242 | 10.0 | 24.0 | 0.00 | 0.00 | 0.00 | 74 | 1012.1 |
| 20260506022545 | 65 | 196 | 10.0 | 25.0 | 0.00 | 0.00 | 0.00 | 74 | 1012.2 |
| 20260506022045 | 65 | 228 | 13.0 | 25.0 | 0.00 | 0.00 | 0.00 | 74 | 1012.2 |
| 20260506021546 | 65 | 225 | 13.0 | 24.0 | 0.00 | 0.00 | 0.00 | 73 | 1012.2 |
| 20260506021045 | 65 | 227 | 10.0 | 25.0 | 0.00 | 0.00 | 0.00 | 74 | 1012.2 |
| 20260506020546 | 65 | 211 | 12.0 | 25.0 | 0.00 | 0.00 | 0.00 | 74 | 1012.3 |
| 20260506020046 | 65 | 199 | 12.0 | 20.0 | 0.00 | 0.00 | 0.00 | 74 | 1012.1 |
| 20260506015544 | 65 | 213 | 11.0 | 17.0 | 0.00 | 0.00 | 0.00 | 73 | 1012.1 |
| 20260506015045 | 65 | 216 | 11.0 | 21.0 | 0.00 | 0.00 | 0.00 | 73 | 1012.0 |
| 20260506014544 | 65 | 230 | 11.0 | 21.0 | 0.00 | 0.00 | 0.00 | 73 | 1012.0 |
| 20260506014043 | 65 | 177 | 13.0 | 23.0 | 0.00 | 0.00 | 0.00 | 73 | 1011.8 |
| 20260506013543 | 65 | 223 | 14.0 | 23.0 | 0.00 | 0.00 | 0.00 | 73 | 1011.9 |
| 20260506013043 | 65 | 229 | 12.0 | 22.0 | 0.00 | 0.00 | 0.00 | 73 | 1011.8 |
| 20260506012543 | 65 | 214 | 11.0 | 22.0 | 0.00 | 0.00 | 0.00 | 73 | 1011.9 |
| 20260506012045 | 65 | 221 | 11.0 | 25.0 | 0.00 | 0.00 | 0.00 | 73 | 1011.8 |
| 20260506011544 | 65 | 210 | 12.0 | 30.0 | 0.00 | 0.00 | 0.00 | 73 | 1011.7 |
| 20260506011042 | 65 | 219 | 11.0 | 25.0 | 0.00 | 0.00 | 0.00 | 73 | 1011.7 |
| 20260506010542 | 65 | 227 | 14.0 | 25.0 | 0.00 | 0.00 | 0.00 | 73 | 1011.7 |
| 20260506010051 | 65 | 242 | 12.0 | 22.0 | 0.00 | 0.00 | 0.00 | 73 | 1011.7 |
| 20260506005543 | 65 | 237 | 13.0 | 22.0 | 0.00 | 0.00 | 0.00 | 73 | 1011.5 |
| 20260506005041 | 65 | 223 | 11.0 | 25.0 | 0.00 | 0.00 | 0.00 | 73 | 1011.5 |
| 20260506004600 | 65 | 203 | 12.0 | 25.0 | 0.00 | 0.00 | 0.00 | 73 | 1011.4 |
| 20260506004040 | 65 | 234 | 12.0 | 24.0 | 0.00 | 0.00 | 0.00 | 73 | 1011.3 |
| 20260506003540 | 65 | 217 | 14.0 | 24.0 | 0.00 | 0.00 | 0.00 | 73 | 1011.2 |
| 20260506003047 | 65 | 200 | 13.0 | 23.0 | 0.00 | 0.00 | 0.00 | 72 | 1011.3 |
| 20260506002540 | 65 | 222 | 12.0 | 21.0 | 0.00 | 0.00 | 0.00 | 72 | 1011.3 |
| 20260506002040 | 66 | 219 | 11.0 | 22.0 | 0.00 | 0.00 | 0.00 | 71 | 1011.2 |
| 20260506001541 | 66 | 240 | 12.0 | 20.0 | 0.00 | 0.00 | 0.00 | 70 | 1011.3 |
| 20260506001040 | 66 | 228 | 10.0 | 20.0 | 0.00 | 0.00 | 0.00 | 70 | 1011.3 |
| 20260506000539 | 66 | 182 | 10.0 | 25.0 | 0.00 | 0.00 | 0.00 | 70 | 1011.3 |
| 20260506000040 | 66 | 232 | 10.0 | 25.0 | 0.00 | 0.00 | 0.00 | 69 | 1011.2 |
| 20260505235540 | 66 | 225 | 9.0 | 20.0 | 0.00 | 0.00 | 0.00 | 68 | 1011.2 |
| 20260505235038 | 66 | 237 | 11.0 | 22.0 | 0.00 | 0.00 | 0.00 | 67 | 1011.2 |
| 20260505234557 | 66 | 244 | 13.0 | 23.0 | 0.00 | 0.00 | 0.00 | 67 | 1011.1 |
| 20260505234038 | 66 | 228 | 12.0 | 24.0 | 0.00 | 0.00 | 0.00 | 68 | 1011.1 |
| 20260505233540 | 66 | 219 | 12.0 | 24.0 | 0.00 | 0.00 | 0.00 | 67 | 1011.1 |
| 20260505233039 | 67 | 215 | 10.0 | 23.0 | 0.00 | 0.00 | 0.00 | 67 | 1011.1 |
| 20260505232538 | 67 | 227 | 12.0 | 21.0 | 0.00 | 0.00 | 0.00 | 66 | 1011.1 |
| 20260505232041 | 68 | 217 | 8.0 | 20.0 | 0.00 | 0.00 | 0.00 | 64 | 1011.2 |
| 20260505231538 | 68 | 242 | 10.0 | 21.0 | 0.00 | 0.00 | 0.00 | 64 | 1011.2 |
| 20260505231037 | 68 | 207 | 2.0 | 15.0 | 0.00 | 0.00 | 0.00 | 63 | 1011.1 |
| 20260505230536 | 69 | 209 | 0.0 | 1.0 | 0.00 | 0.00 | 0.00 | 62 | 1011.0 |
| 20260505230041 | 69 | 216 | 0.0 | 18.0 | 0.00 | 0.00 | 0.00 | 62 | 1010.9 |
| 20260505225536 | 70 | 239 | 2.0 | 21.0 | 0.00 | 0.00 | 0.00 | 61 | 1011.0 |
| 20260505225036 | 70 | 225 | 9.0 | 21.0 | 0.00 | 0.00 | 0.00 | 61 | 1010.9 |
| 20260505224540 | 70 | 227 | 0.0 | 0.0 | 0.00 | 0.00 | 0.00 | 61 | 1010.9 |
| 20260505224035 | 70 | 221 | 0.0 | 0.0 | 0.00 | 0.00 | 0.00 | 61 | 1010.8 |
| 20260505223535 | 70 | 221 | 0.0 | 1.0 | 0.00 | 0.00 | 0.00 | 60 | 1010.8 |
| 20260505223036 | 70 | 224 | 0.0 | 1.0 | 0.00 | 0.00 | 0.00 | 61 | 1010.7 |
| 20260505222535 | 70 | 213 | 0.0 | 1.0 | 0.00 | 0.00 | 0.00 | 60 | 1010.7 |
| 20260505222035 | 70 | 205 | 0.0 | 22.0 | 0.00 | 0.00 | 0.00 | 61 | 1010.7 |
| 20260505221535 | 70 | 223 | 8.0 | 22.0 | 0.00 | 0.00 | 0.00 | 59 | 1010.9 |
| 20260505221034 | 71 | 110 | 0.0 | 10.0 | 0.00 | 0.00 | 0.00 | 59 | 1010.7 |
| 20260505220534 | 71 | 243 | 0.0 | 16.0 | 0.00 | 0.00 | 0.00 | 59 | 1010.8 |
| 20260505220044 | 71 | 216 | 4.0 | 20.0 | 0.00 | 0.00 | 0.00 | 58 | 1010.7 |
| 20260505215534 | 72 | 259 | 7.0 | 16.0 | 0.00 | 0.00 | 0.00 | 58 | 1010.6 |
| 20260505215033 | 71 | 207 | 0.0 | 21.0 | 0.00 | 0.00 | 0.00 | 59 | 1010.5 |
| 20260505214538 | 72 | 234 | 3.0 | 22.0 | 0.00 | 0.00 | 0.00 | 57 | 1010.5 |
| 20260505214035 | 72 | 223 | 10.0 | 21.0 | 0.00 | 0.00 | 0.00 | 56 | 1010.5 |
| 20260505213531 | 73 | 229 | 9.0 | 19.0 | 0.00 | 0.00 | 0.00 | 57 | 1010.5 |
| 20260505213032 | 73 | 207 | 0.0 | 24.0 | 0.00 | 0.00 | 0.00 | 57 | 1010.5 |
| 20260505212531 | 73 | 194 | 10.0 | 22.0 | 0.00 | 0.00 | 0.00 | 57 | 1010.5 |
| 20260505212031 | 74 | 213 | 0.0 | 0.0 | 0.00 | 0.00 | 0.00 | 55 | 1010.4 |
| 20260505211535 | 74 | 212 | 0.0 | 0.0 | 0.00 | 0.00 | 0.00 | 54 | 1010.3 |
| 20260505211032 | 75 | 217 | 0.0 | 0.0 | 0.00 | 0.00 | 0.00 | 54 | 1010.3 |
| 20260505210529 | 75 | 227 | 0.0 | 0.0 | 0.00 | 0.00 | 0.00 | 54 | 1010.3 |
| 20260505210030 | 75 | 205 | 0.0 | 0.0 | 0.00 | 0.00 | 0.00 | 53 | 1010.4 |
| 20260505205530 | 75 | 216 | 0.0 | 0.0 | 0.00 | 0.00 | 0.00 | 54 | 1010.4 |
| 20260505205032 | 75 | 188 | 0.0 | 0.0 | 0.00 | 0.00 | 0.00 | 53 | 1010.4 |
| 20260505204529 | 75 | 218 | 0.0 | 0.0 | 0.00 | 0.00 | 0.00 | 52 | 1010.3 |
| 20260505204028 | 76 | 219 | 0.0 | 0.0 | 0.00 | 0.00 | 0.00 | 52 | 1010.3 |
| 20260505203529 | 75 | 216 | 0.0 | 0.0 | 0.00 | 0.00 | 0.00 | 52 | 1010.2 |
| 20260505203028 | 75 | 228 | 0.0 | 0.0 | 0.00 | 0.00 | 0.00 | 51 | 1010.4 |
| 20260505202528 | 75 | 221 | 0.0 | 0.0 | 0.00 | 0.00 | 0.00 | 52 | 1010.3 |
| 20260505202027 | 76 | 215 | 0.0 | 0.0 | 0.00 | 0.00 | 0.00 | 51 | 1010.3 |
| 20260505201526 | 76 | 231 | 0.0 | 0.0 | 0.00 | 0.00 | 0.00 | 52 | 1010.3 |
| 20260505201026 | 76 | 230 | 0.0 | 0.0 | 0.00 | 0.00 | 0.00 | 50 | 1010.4 |
| 20260505200530 | 76 | 228 | 0.0 | 0.0 | 0.00 | 0.00 | 0.00 | 50 | 1010.4 |
| 20260505200026 | 77 | 213 | 0.0 | 0.0 | 0.00 | 0.00 | 0.00 | 51 | 1010.5 |
| 20260505195524 | 77 | 230 | 0.0 | 0.0 | 0.00 | 0.00 | 0.00 | 50 | 1010.5 |
| 20260505195024 | 78 | 152 | 0.0 | 0.0 | 0.00 | 0.00 | 0.00 | 51 | 1010.6 |
| 20260505194532 | 78 | 229 | 0.0 | 0.0 | 0.00 | 0.00 | 0.00 | 51 | 1010.6 |
| 20260505194023 | 78 | 218 | 0.0 | 0.0 | 0.00 | 0.00 | 0.00 | 51 | 1010.6 |
| 20260505193523 | 78 | 194 | 0.0 | 0.0 | 0.00 | 0.00 | 0.00 | 52 | 1010.6 |
| 20260505193035 | 78 | 184 | 0.0 | 0.0 | 0.00 | 0.00 | 0.00 | 51 | 1010.7 |
| 20260505192521 | 79 | 221 | 0.0 | 0.0 | 0.00 | 0.00 | 0.00 | 50 | 1010.8 |
| 20260505192021 | 78 | 229 | 0.0 | 0.0 | 0.00 | 0.00 | 0.00 | 50 | 1010.8 |
| 20260505191524 | 79 | 174 | 0.0 | 0.0 | 0.00 | 0.00 | 0.00 | 51 | 1010.9 |
| 20260505191027 | 79 | 159 | 0.0 | 0.0 | 0.00 | 0.00 | 0.00 | 50 | 1010.9 |
| 20260505190522 | 79 | 227 | 0.0 | 0.0 | 0.00 | 0.00 | 0.00 | 50 | 1011.0 |
| 20260505190019 | 79 | 184 | 0.0 | 0.0 | 0.00 | 0.00 | 0.00 | 50 | 1011.0 |
| 20260505185521 | 80 | 210 | 0.0 | 0.0 | 0.00 | 0.00 | 0.00 | 49 | 1011.0 |
| 20260505185019 | 80 | 196 | 0.0 | 0.0 | 0.00 | 0.00 | 0.00 | 48 | 1011.1 |
| 20260505184520 | 80 | 207 | 0.0 | 0.0 | 0.00 | 0.00 | 0.00 | 48 | 1011.0 |
| 20260505184019 | 80 | 229 | 0.0 | 0.0 | 0.00 | 0.00 | 0.00 | 47 | 1011.0 |
| 20260505183517 | 80 | 211 | 0.0 | 0.0 | 0.00 | 0.00 | 0.00 | 48 | 1011.1 |
| 20260505183023 | 80 | 209 | 0.0 | 0.0 | 0.00 | 0.00 | 0.00 | 48 | 1011.1 |
| 20260505182518 | 80 | 231 | 0.0 | 0.0 | 0.00 | 0.00 | 0.00 | 48 | 1011.1 |
| 20260505182018 | 80 | 221 | 0.0 | 0.0 | 0.00 | 0.00 | 0.00 | 46 | 1011.2 |
| 20260505181517 | 80 | 218 | 0.0 | 0.0 | 0.00 | 0.00 | 0.00 | 46 | 1011.2 |
| 20260505181017 | 80 | 220 | 0.0 | 0.0 | 0.00 | 0.00 | 0.00 | 48 | 1011.2 |
| 20260505180517 | 80 | 208 | 0.0 | 0.0 | 0.00 | 0.00 | 0.00 | 47 | 1011.3 |
| 20260505180015 | 80 | 209 | 0.0 | 0.0 | 0.00 | 0.00 | 0.00 | 44 | 1011.3 |
| 20260505175515 | 80 | 215 | 0.0 | 0.0 | 0.00 | 0.00 | 0.00 | 43 | 1011.5 |
| 20260505175014 | 80 | 214 | 0.0 | 0.0 | 0.00 | 0.00 | 0.00 | 46 | 1011.5 |
| 20260505174526 | 79 | 181 | 0.0 | 0.0 | 0.00 | 0.00 | 0.00 | 50 | 1011.5 |
| 20260505174014 | 79 | 232 | 0.0 | 0.0 | 0.00 | 0.00 | 0.00 | 46 | 1011.5 |
| 20260505173514 | 79 | 207 | 0.0 | 0.0 | 0.00 | 0.00 | 0.00 | 47 | 1011.7 |
| 20260505173014 | 79 | 240 | 0.0 | 0.0 | 0.00 | 0.00 | 0.00 | 46 | 1011.6 |
| 20260505172513 | 79 | 236 | 0.0 | 0.0 | 0.00 | 0.00 | 0.00 | 46 | 1011.7 |
| 20260505172013 | 79 | 268 | 0.0 | 0.0 | 0.00 | 0.00 | 0.00 | 45 | 1011.8 |
| 20260505171514 | 79 | 247 | 0.0 | 1.0 | 0.00 | 0.00 | 0.00 | 45 | 1011.8 |
| 20260505171011 | 79 | 261 | 0.0 | 1.0 | 0.00 | 0.00 | 0.00 | 47 | 1011.8 |
| 20260505170509 | 78 | 229 | 0.0 | 0.0 | 0.00 | 0.00 | 0.00 | 48 | 1011.7 |
| 20260505170019 | 78 | 219 | 0.0 | 0.0 | 0.00 | 0.00 | 0.00 | 48 | 1011.7 |
| 20260505165507 | 78 | 211 | 0.0 | 0.0 | 0.00 | 0.00 | 0.00 | 48 | 1011.7 |
| 20260505165006 | 77 | 236 | 0.0 | 0.0 | 0.00 | 0.00 | 0.00 | 48 | 1011.8 |
| 20260505164506 | 77 | 213 | 0.0 | 0.0 | 0.00 | 0.00 | 0.00 | 47 | 1011.9 |
| 20260505164007 | 77 | 260 | 0.0 | 0.0 | 0.00 | 0.00 | 0.00 | 50 | 1011.9 |
| 20260505163503 | 76 | 234 | 0.0 | 0.0 | 0.00 | 0.00 | 0.00 | 49 | 1012.1 |
| 20260505163004 | 76 | 232 | 0.0 | 0.0 | 0.00 | 0.00 | 0.00 | 48 | 1012.1 |
| 20260505162503 | 76 | 278 | 0.0 | 5.0 | 0.00 | 0.00 | 0.00 | 50 | 1012.2 |
| 20260505162003 | 76 | 275 | 0.0 | 5.0 | 0.00 | 0.00 | 0.00 | 49 | 1012.3 |
| 20260505161502 | 76 | 211 | 0.0 | 3.0 | 0.00 | 0.00 | 0.00 | 50 | 1012.3 |
| 20260505161101 | 75 | 246 | 0.0 | 0.0 | 0.00 | 0.00 | 0.00 | 50 | 1012.2 |
| 20260505160600 | 75 | 229 | 0.0 | 0.0 | 0.00 | 0.00 | 0.00 | 50 | 1012.3 |
| 20260505153059 | 74 | 212 | 7.0 | 15.0 | 0.00 | 0.00 | 0.00 | 53 | 1012.7 |
| 20260505152556 | 74 | 240 | 6.0 | 15.0 | 0.00 | 0.00 | 0.00 | 54 | 1012.7 |
| 20260505152052 | 73 | 243 | 8.0 | 15.0 | 0.00 | 0.00 | 0.00 | 53 | 1012.5 |
| 20260505151553 | 73 | 228 | 5.0 | 16.0 | 0.00 | 0.00 | 0.00 | 54 | 1012.5 |
| 20260505151051 | 72 | 228 | 8.0 | 16.0 | 0.00 | 0.00 | 0.00 | 54 | 1012.5 |
| 20260505150552 | 72 | 228 | 7.0 | 15.0 | 0.00 | 0.00 | 0.00 | 55 | 1012.4 |
| 20260505140540 | 69 | 229 | 7.0 | 14.0 | 0.00 | 0.00 | 0.00 | 61 | 1012.8 |
| 20260505125033 | 67 | 219 | 4.0 | 13.0 | 0.00 | 0.00 | 0.00 | 63 | 1012.7 |
| 20260505124531 | 67 | 253 | 1.0 | 13.0 | 0.00 | 0.00 | 0.00 | 64 | 1012.7 |
| 20260505124032 | 67 | 245 | 4.0 | 13.0 | 0.00 | 0.00 | 0.00 | 63 | 1012.7 |
| 20260505123528 | 66 | 213 | 7.0 | 15.0 | 0.00 | 0.00 | 0.00 | 65 | 1012.6 |
| 20260505123049 | 66 | 242 | 6.0 | 14.0 | 0.00 | 0.00 | 0.00 | 65 | 1012.6 |
| 20260505122527 | 66 | 234 | 7.0 | 12.0 | 0.00 | 0.00 | 0.00 | 66 | 1012.6 |
| 20260505122026 | 66 | 216 | 5.0 | 15.0 | 0.00 | 0.00 | 0.00 | 66 | 1012.5 |
| 20260505121526 | 66 | 240 | 5.0 | 12.0 | 0.00 | 0.00 | 0.00 | 66 | 1012.6 |
| 20260505121025 | 66 | 215 | 7.0 | 12.0 | 0.00 | 0.00 | 0.00 | 66 | 1012.5 |
| 20260505120526 | 65 | 234 | 5.0 | 11.0 | 0.00 | 0.00 | 0.00 | 67 | 1012.5 |
| 20260505120027 | 65 | 225 | 5.0 | 21.0 | 0.00 | 0.00 | 0.00 | 67 | 1012.5 |
| 20260505115520 | 65 | 238 | 4.0 | 21.0 | 0.00 | 0.00 | 0.00 | 68 | 1012.5 |
| 20260505115020 | 64 | 215 | 3.0 | 11.0 | 0.00 | 0.00 | 0.00 | 69 | 1012.4 |
| 20260505114518 | 64 | 222 | 4.0 | 11.0 | 0.00 | 0.00 | 0.00 | 70 | 1012.4 |
| 20260505114018 | 64 | 226 | 6.0 | 11.0 | 0.00 | 0.00 | 0.00 | 71 | 1012.3 |
| 20260505113515 | 63 | 227 | 4.0 | 10.0 | 0.00 | 0.00 | 0.00 | 71 | 1012.3 |
| 20260505113018 | 63 | 236 | 5.0 | 10.0 | 0.00 | 0.00 | 0.00 | 72 | 1012.3 |
| 20260505112514 | 63 | 237 | 6.0 | 12.0 | 0.00 | 0.00 | 0.00 | 72 | 1012.2 |
| 20260505112018 | 62 | 225 | 5.0 | 12.0 | 0.00 | 0.00 | 0.00 | 73 | 1012.2 |
| 20260505111516 | 62 | 236 | 4.0 | 8.0 | 0.00 | 0.00 | 0.00 | 74 | 1012.2 |
| 20260505111015 | 62 | 238 | 4.0 | 10.0 | 0.00 | 0.00 | 0.00 | 75 | 1012.2 |
| 20260505110513 | 61 | 219 | 5.0 | 10.0 | 0.00 | 0.00 | 0.00 | 75 | 1012.1 |
| 20260505102011 | 59 | 257 | 3.0 | 7.0 | 0.00 | 0.00 | 0.00 | 77 | 1011.8 |
| 20260505101508 | 59 | 279 | 2.0 | 5.0 | 0.00 | 0.00 | 0.00 | 77 | 1011.8 |
| 20260505101008 | 59 | 238 | 2.0 | 5.0 | 0.00 | 0.00 | 0.00 | 77 | 1011.8 |
| 20260505100507 | 59 | 234 | 2.0 | 5.0 | 0.00 | 0.00 | 0.00 | 76 | 1011.7 |
| 20260505100007 | 60 | 232 | 3.0 | 5.0 | 0.00 | 0.00 | 0.00 | 76 | 1011.7 |
| 20260505095506 | 60 | 210 | 3.0 | 5.0 | 0.00 | 0.00 | 0.00 | 76 | 1011.6 |
| 20260505095007 | 60 | 238 | 3.0 | 7.0 | 0.00 | 0.00 | 0.00 | 76 | 1011.5 |
| 20260505094508 | 60 | 204 | 3.0 | 6.0 | 0.00 | 0.00 | 0.00 | 77 | 1011.5 |
| 20260505094006 | 60 | 236 | 2.0 | 7.0 | 0.00 | 0.00 | 0.00 | 77 | 1011.5 |
| 20260505093507 | 60 | 266 | 2.0 | 7.0 | 0.00 | 0.00 | 0.00 | 76 | 1011.4 |
| 20260505093009 | 60 | 247 | 3.0 | 8.0 | 0.00 | 0.00 | 0.00 | 76 | 1011.4 |
| 20260505092508 | 60 | 227 | 3.0 | 9.0 | 0.00 | 0.00 | 0.00 | 76 | 1011.4 |
| 20260505092006 | 60 | 259 | 3.0 | 9.0 | 0.00 | 0.00 | 0.00 | 76 | 1011.3 |
| 20260505091506 | 60 | 265 | 4.0 | 7.0 | 0.00 | 0.00 | 0.00 | 76 | 1011.3 |